Time,TemperatureF,DewpointF,PressureIn,WindDirection,WindDirectionDegrees,WindSpeedMPH,WindSpeedGustMPH,Humidity,HourlyPrecipIn,Conditions,Clouds,dailyrainin,SoftwareType,DateUTC
2013-01-14 00:16:00,61.6,57.4,29.99,SW,227,2.0,6.0,86,0.00,,CLR,0.00,VWS V14.00,2013-01-14 05:16:00,
2013-01-14 00:31:00,61.0,57.1,29.98,SW,227,0.0,3.0,87,0.00,,CLR,0.00,VWS V14.00,2013-01-14 05:31:00,
2013-01-14 00:46:00,60.5,56.6,29.98,SW,227,0.0,2.0,87,0.00,,CLR,0.00,VWS V14.00,2013-01-14 05:46:00,
2013-01-14 01:01:00,60.4,56.8,29.98,SW,227,0.0,2.0,88,0.00,,CLR,0.00,VWS V14.00,2013-01-14 06:01:00,
2013-01-14 01:16:00,60.2,57.0,29.98,SW,227,0.0,2.0,89,0.00,,CLR,0.00,VWS V14.00,2013-01-14 06:16:00,
2013-01-14 01:31:00,59.9,56.7,29.99,SW,227,0.0,2.0,89,0.00,,CLR,0.00,VWS V14.00,2013-01-14 06:31:00,
2013-01-14 01:46:00,59.6,56.7,29.99,SW,227,0.0,1.0,90,0.00,,CLR,0.00,VWS V14.00,2013-01-14 06:46:00,
2013-01-14 02:01:00,59.2,56.3,30.00,SW,227,0.0,1.0,90,0.00,,CLR,0.00,VWS V14.00,2013-01-14 07:01:00,
2013-01-14 02:16:00,59.0,56.4,30.00,SW,227,0.0,2.0,91,0.00,,CLR,0.00,VWS V14.00,2013-01-14 07:16:00,
2013-01-14 02:31:00,59.2,56.6,30.00,SW,227,0.0,0.0,91,0.00,,CLR,0.00,VWS V14.00,2013-01-14 07:31:00,
2013-01-14 02:46:00,59.3,57.0,30.00,SW,227,0.0,0.0,92,0.00,,CLR,0.00,VWS V14.00,2013-01-14 07:46:00,
2013-01-14 03:01:00,59.3,57.0,30.00,SW,227,0.0,0.0,92,0.00,,CLR,0.00,VWS V14.00,2013-01-14 08:01:00,
2013-01-14 03:16:00,59.2,56.9,30.00,SW,227,0.0,0.0,92,0.00,,CLR,0.00,VWS V14.00,2013-01-14 08:16:00,
2013-01-14 03:31:00,59.5,57.5,30.00,SW,227,0.0,0.0,93,0.00,,CLR,0.00,VWS V14.00,2013-01-14 08:31:00,
2013-01-14 03:46:00,59.6,57.6,29.99,SW,223,0.0,2.0,93,0.00,,CLR,0.00,VWS V14.00,2013-01-14 08:46:00,
2013-01-14 04:01:00,59.9,57.6,29.99,SW,224,0.0,1.0,92,0.00,,CLR,0.00,VWS V14.00,2013-01-14 09:01:00,
2013-01-14 04:16:00,60.1,57.8,29.99,SW,224,0.0,2.0,92,0.00,,CLR,0.00,VWS V14.00,2013-01-14 09:16:00,
2013-01-14 04:31:00,60.1,57.8,29.99,SW,224,0.0,2.0,92,0.00,,CLR,0.00,VWS V14.00,2013-01-14 09:31:00,
2013-01-14 04:46:00,60.4,58.1,29.99,SW,224,0.0,3.0,92,0.00,,CLR,0.00,VWS V14.00,2013-01-14 09:46:00,
2013-01-14 05:01:00,60.4,58.1,29.99,SW,224,0.0,2.0,92,0.00,,BKN090,0.00,VWS V14.00,2013-01-14 10:01:00,
2013-01-14 05:16:00,60.4,58.1,29.99,SW,224,0.0,2.0,92,0.00,,BKN090,0.00,VWS V14.00,2013-01-14 10:16:00,
2013-01-14 05:31:00,60.1,57.8,29.99,SW,224,0.0,1.0,92,0.00,,BKN090,0.00,VWS V14.00,2013-01-14 10:31:00,
2013-01-14 05:46:00,59.9,57.6,29.99,SW,224,0.0,2.0,92,0.00,,BKN090,0.00,VWS V14.00,2013-01-14 10:46:00,
2013-01-14 06:01:00,59.9,57.6,29.99,SW,224,0.0,1.0,92,0.00,,-RA,0.00,VWS V14.00,2013-01-14 11:01:00,
2013-01-14 06:16:00,60.1,58.1,30.00,SW,224,0.0,1.0,93,0.00,,-RA,0.00,VWS V14.00,2013-01-14 11:16:00,
2013-01-14 06:31:00,60.1,58.1,30.00,SW,224,0.0,1.0,93,0.00,,-RA,0.00,VWS V14.00,2013-01-14 11:31:00,
2013-01-14 06:46:00,60.2,58.2,30.00,SW,224,0.0,2.0,93,0.00,,-RA,0.00,VWS V14.00,2013-01-14 11:46:00,
2013-01-14 07:01:00,60.1,58.1,30.01,SW,226,0.0,1.0,93,0.00,,-RA,0.00,VWS V14.00,2013-01-14 12:01:00,
2013-01-14 07:16:00,59.9,57.9,30.01,SW,224,0.0,1.0,93,0.01,,-RA,0.01,VWS V14.00,2013-01-14 12:16:00,
2013-01-14 07:31:00,59.9,57.9,30.01,SW,224,0.0,1.0,93,0.01,,-RA,0.01,VWS V14.00,2013-01-14 12:31:00,
2013-01-14 07:46:00,59.8,57.8,30.01,SW,224,0.0,1.0,93,0.01,,-RA,0.01,VWS V14.00,2013-01-14 12:46:00,
2013-01-14 08:01:00,59.8,57.8,30.02,SSE,167,0.0,2.0,93,0.01,,-RA,0.01,VWS V14.00,2013-01-14 13:01:00,
2013-01-14 08:16:00,59.9,57.9,30.03,SSE,167,0.0,1.0,93,0.01,,-RA,0.01,VWS V14.00,2013-01-14 13:16:00,
2013-01-14 08:31:00,60.1,58.1,30.03,SSE,167,0.0,3.0,93,0.00,,-RA,0.01,VWS V14.00,2013-01-14 13:31:00,
2013-01-14 08:46:00,60.1,58.1,30.03,SSE,168,0.0,1.0,93,0.01,,-RA,0.02,VWS V14.00,2013-01-14 13:46:00,
2013-01-14 09:01:00,60.2,58.5,30.04,SSE,167,0.0,2.0,94,0.02,,,0.03,VWS V14.00,2013-01-14 14:01:00,
2013-01-14 09:16:00,60.5,58.8,30.05,SSE,167,0.0,2.0,94,0.03,,,0.04,VWS V14.00,2013-01-14 14:16:00,
2013-01-14 09:31:00,60.5,58.5,30.05,SSE,167,0.0,0.0,93,0.05,,,0.06,VWS V14.00,2013-01-14 14:31:00,
2013-01-14 09:46:00,60.5,58.5,30.06,SSE,168,0.0,1.0,93,0.09,,,0.10,VWS V14.00,2013-01-14 14:46:00,
2013-01-14 10:01:00,60.5,58.5,30.05,SSE,168,0.0,2.0,93,0.12,, +RA,0.14,VWS V14.00,2013-01-14 15:01:00,
2013-01-14 10:16:00,60.7,58.7,30.04,SSE,168,1.0,2.0,93,0.11,, +RA,0.14,VWS V14.00,2013-01-14 15:16:00,
2013-01-14 10:31:00,60.7,58.7,30.04,ESE,119,0.0,6.0,93,0.10,, +RA,0.14,VWS V14.00,2013-01-14 15:31:00,
2013-01-14 10:46:00,61.0,59.0,30.05,ESE,123,0.0,3.0,93,0.08,, +RA,0.14,VWS V14.00,2013-01-14 15:46:00,
2013-01-14 11:01:00,61.5,59.8,30.04,SSE,168,0.0,3.0,94,0.04,,-RA,0.14,VWS V14.00,2013-01-14 16:01:00,
2013-01-14 11:16:00,62.3,60.6,30.02,SSE,168,0.0,3.0,94,0.00,,-RA,0.14,VWS V14.00,2013-01-14 16:16:00,
2013-01-14 11:31:00,62.0,60.0,30.02,SSW,212,1.0,6.0,93,0.00,,-RA,0.14,VWS V14.00,2013-01-14 16:31:00,
2013-01-14 11:46:00,62.0,60.0,30.01,SSW,212,1.0,3.0,93,0.00,,-RA,0.14,VWS V14.00,2013-01-14 16:46:00,
2013-01-14 12:01:00,62.1,60.1,30.01,SSW,212,0.0,3.0,93,0.00,,-RA,0.14,VWS V14.00,2013-01-14 17:01:00,
2013-01-14 12:16:00,62.3,60.2,30.01,SW,232,0.0,3.0,93,0.03,,-RA,0.17,VWS V14.00,2013-01-14 17:16:00,
2013-01-14 12:31:00,62.3,60.2,30.01,SW,232,0.0,2.0,93,0.07,,-RA,0.21,VWS V14.00,2013-01-14 17:31:00,
2013-01-14 12:46:00,62.4,60.3,30.00,SW,233,0.0,2.0,93,0.09,,-RA,0.23,VWS V14.00,2013-01-14 17:46:00,
2013-01-14 13:01:00,62.6,60.5,30.00,SW,233,0.0,3.0,93,0.11,,RA,0.25,VWS V14.00,2013-01-14 18:01:00,
2013-01-14 13:16:00,63.1,61.3,30.00,SW,232,1.0,2.0,94,0.12,,RA,0.26,VWS V14.00,2013-01-14 18:16:00,
2013-01-14 13:31:00,63.1,61.3,29.99,SW,232,0.0,3.0,94,0.09,,RA,0.26,VWS V14.00,2013-01-14 18:31:00,
2013-01-14 13:46:00,63.5,61.8,29.99,SW,230,1.0,3.0,94,0.06,,RA,0.27,VWS V14.00,2013-01-14 18:46:00,
2013-01-14 14:01:00,63.7,62.0,29.99,SW,230,0.0,2.0,94,0.04,,-RA,0.27,VWS V14.00,2013-01-14 19:01:00,
2013-01-14 14:16:00,64.0,62.2,29.99,SW,230,0.0,2.0,94,0.02,,-RA,0.27,VWS V14.00,2013-01-14 19:16:00,
2013-01-14 14:31:00,64.0,62.2,30.00,SW,230,0.0,2.0,94,0.01,,-RA,0.27,VWS V14.00,2013-01-14 19:31:00,
2013-01-14 14:46:00,64.2,62.4,30.00,SW,229,0.0,1.0,94,0.01,,-RA,0.27,VWS V14.00,2013-01-14 19:46:00,
2013-01-14 15:01:00,64.2,62.4,30.00,SW,229,0.0,1.0,94,0.02,,-RA,0.29,VWS V14.00,2013-01-14 20:01:00,
2013-01-14 15:16:00,63.9,62.1,30.00,SW,229,0.0,1.0,94,0.02,,-RA,0.29,VWS V14.00,2013-01-14 20:16:00,
2013-01-14 15:31:00,63.9,62.1,30.01,SW,230,0.0,1.0,94,0.02,,-RA,0.29,VWS V14.00,2013-01-14 20:31:00,
2013-01-14 15:46:00,63.9,62.1,30.02,SW,230,0.0,2.0,94,0.02,,-RA,0.29,VWS V14.00,2013-01-14 20:46:00,
2013-01-14 16:01:00,63.9,62.1,30.02,SW,230,0.0,0.0,94,0.02,,-RA,0.29,VWS V14.00,2013-01-14 21:01:00,
2013-01-14 16:16:00,63.9,62.1,30.03,SW,230,0.0,0.0,94,0.00,,-RA,0.29,VWS V14.00,2013-01-14 21:16:00,
2013-01-14 16:31:00,63.9,62.1,30.03,SW,230,0.0,2.0,94,0.00,,-RA,0.29,VWS V14.00,2013-01-14 21:31:00,
2013-01-14 16:46:00,63.9,62.1,30.03,SW,230,0.0,1.0,94,0.00,,-RA,0.29,VWS V14.00,2013-01-14 21:46:00,
2013-01-14 17:01:00,63.7,62.0,30.03,SW,230,0.0,1.0,94,0.00,,,0.29,VWS V14.00,2013-01-14 22:01:00,
2013-01-14 17:16:00,63.4,61.7,30.03,SW,230,0.0,1.0,94,0.00,,,0.29,VWS V14.00,2013-01-14 22:16:00,
2013-01-14 17:31:00,63.1,61.3,30.04,SW,230,0.0,0.0,94,0.00,,,0.29,VWS V14.00,2013-01-14 22:31:00,
2013-01-14 17:46:00,62.9,61.2,30.03,SW,229,0.0,0.0,94,0.00,,,0.29,VWS V14.00,2013-01-14 22:46:00,
2013-01-14 18:01:00,62.7,61.0,30.03,SW,230,0.0,0.0,94,0.01,,,0.30,VWS V14.00,2013-01-14 23:01:00,
2013-01-14 18:16:00,62.6,60.8,30.03,SW,230,0.0,0.0,94,0.01,,,0.30,VWS V14.00,2013-01-14 23:16:00,
2013-01-14 18:31:00,62.4,60.7,30.03,SW,230,0.0,0.0,94,0.03,,,0.32,VWS V14.00,2013-01-14 23:31:00,
2013-01-14 18:46:00,62.6,60.8,30.03,SW,230,0.0,0.0,94,0.04,,,0.33,VWS V14.00,2013-01-14 23:46:00,
2013-01-14 19:01:00,62.4,60.7,30.03,SW,230,0.0,0.0,94,0.04,,-RA,0.33,VWS V14.00,2013-01-15 00:01:00,
2013-01-14 19:16:00,62.4,60.7,30.03,SW,230,0.0,0.0,94,0.03,,-RA,0.33,VWS V14.00,2013-01-15 00:16:00,
2013-01-14 19:31:00,62.3,60.6,30.02,SW,230,0.0,0.0,94,0.03,,-RA,0.33,VWS V14.00,2013-01-15 00:31:00,
2013-01-14 19:46:00,62.4,61.0,30.02,SW,230,0.0,2.0,95,0.01,,-RA,0.33,VWS V14.00,2013-01-15 00:46:00,
2013-01-14 20:01:00,62.7,61.2,30.03,SW,230,0.0,1.0,95,0.00,, +RA,0.33,VWS V14.00,2013-01-15 01:01:00,
2013-01-14 20:16:00,62.9,61.5,30.02,SW,230,0.0,1.0,95,0.01,, +RA,0.34,VWS V14.00,2013-01-15 01:16:00,
2013-01-14 20:31:00,62.9,61.5,30.03,SW,230,0.0,2.0,95,0.02,, +RA,0.35,VWS V14.00,2013-01-15 01:31:00,
2013-01-14 20:46:00,62.9,61.5,30.02,SW,217,1.0,3.0,95,0.05,, +RA,0.38,VWS V14.00,2013-01-15 01:46:00,
2013-01-14 21:01:00,63.2,61.8,30.03,SW,217,0.0,3.0,95,0.06,,-RA,0.39,VWS V14.00,2013-01-15 02:01:00,
2013-01-14 21:16:00,63.2,61.8,30.03,SW,217,0.0,2.0,95,0.06,,-RA,0.39,VWS V14.00,2013-01-15 02:16:00,
2013-01-14 21:31:00,62.6,61.2,30.03,NNW,347,2.0,6.0,95,0.05,,-RA,0.39,VWS V14.00,2013-01-15 02:31:00,
2013-01-14 21:46:00,60.5,58.8,30.03,ENE,72,0.0,4.0,94,0.04,,-RA,0.39,VWS V14.00,2013-01-15 02:46:00,
2013-01-14 22:01:00,58.4,56.7,30.03,East,82,1.0,11.0,94,0.01,,OVC006,0.39,VWS V14.00,2013-01-15 03:01:00,
2013-01-14 22:16:00,57.6,55.9,30.03,ENE,76,0.0,4.0,94,0.00,,OVC006,0.39,VWS V14.00,2013-01-15 03:16:00,
2013-01-14 22:31:00,57.5,55.8,30.04,East,97,1.0,6.0,94,0.00,,OVC006,0.39,VWS V14.00,2013-01-15 03:31:00,
2013-01-14 22:46:00,57.2,55.5,30.05,East,96,2.0,4.0,94,0.00,,OVC006,0.39,VWS V14.00,2013-01-15 03:46:00,
2013-01-14 23:01:00,56.9,55.2,30.06,ESE,102,0.0,6.0,94,0.00,,OVC004,0.39,VWS V14.00,2013-01-15 04:01:00,
2013-01-14 23:16:00,56.6,54.9,30.06,East,79,0.0,7.0,94,0.00,,OVC004,0.39,VWS V14.00,2013-01-15 04:16:00,
2013-01-14 23:31:00,55.9,54.2,30.06,NE,48,0.0,6.0,94,0.00,,OVC004,0.39,VWS V14.00,2013-01-15 04:31:00,
2013-01-14 23:46:00,55.6,53.9,30.08,North,356,3.0,7.0,94,0.00,,OVC004,0.39,VWS V14.00,2013-01-15 04:46:00,